Location: Mascot Post Office (historical)
(40.2645°N, 99.5462°W)
Time: 01:58:10
(UTC+00:00)

Cosmos 2112 Rocket - Pass Details

Date: 14 July 2020
Orbit: 756 x 787 km, 74.1° (Epoch: 14 August)

Event Time Altitude Azimuth Distance (km) Brightness Sun altitude
Rises 03:59:25 0° 204° (SSW) 3,259 7.0 -17.2°
Reaches altitude 10° 04:01:49 10° 207° (SSW) 2,337 6.3 -17.5°
Maximum altitude 04:07:07 68° 290° (WNW) 846 4.3 -18.1°
Drops below altitude 10° 04:12:27 10° 14° (NNE) 2,354 7.0 -18.8°
Sets 04:14:52 0° 17° (NNE) 3,285 7.8 -19.0°
